| time (UTC) | temp F | wind direction | speed MPH | gust MPH | rain 1hr in | rain 24hr in | rain mn in | humidity % | barometer mb |
| 20260504060137 | 46 | 274 | 0.0 | 0.0 | 0.00 | 0.00 | 0.00 | 76 | 1016.9 |
| 20260504050606 | 47 | 282 | 0.0 | 0.0 | 0.00 | 0.00 | 0.00 | 74 | 1017.1 |
| 20260504045559 | 47 | 282 | 1.0 | 1.0 | 0.00 | 0.00 | 0.00 | 74 | 1017.0 |
| 20260504045054 | 47 | 299 | 1.0 | 2.0 | 0.00 | 0.00 | 0.00 | 74 | 1016.9 |
| 20260504044553 | 47 | 305 | 2.0 | 2.0 | 0.00 | 0.00 | 0.00 | 74 | 1017.1 |
| 20260504044049 | 47 | 285 | 0.0 | 0.0 | 0.00 | 0.00 | 0.00 | 73 | 1016.9 |
| 20260504043547 | 47 | 290 | 1.0 | 1.0 | 0.00 | 0.00 | 0.00 | 73 | 1016.9 |
| 20260504043044 | 47 | 284 | 1.0 | 1.0 | 0.00 | 0.00 | 0.00 | 74 | 1016.7 |
| 20260504042540 | 47 | 279 | 0.0 | 0.0 | 0.00 | 0.00 | 0.00 | 72 | 1016.8 |
| 20260504042037 | 47 | 302 | 1.0 | 1.0 | 0.00 | 0.00 | 0.00 | 72 | 1016.7 |
| 20260504041533 | 47 | 286 | 0.0 | 1.0 | 0.00 | 0.00 | 0.00 | 72 | 1016.8 |
| 20260504041029 | 47 | 272 | 0.0 | 0.0 | 0.00 | 0.00 | 0.00 | 73 | 1016.7 |
| 20260504040527 | 47 | 270 | 1.0 | 1.0 | 0.00 | 0.00 | 0.00 | 73 | 1016.7 |
| 20260504040024 | 47 | 286 | 0.0 | 0.0 | 0.00 | 0.00 | 0.00 | 72 | 1016.7 |
| 20260504035521 | 47 | 275 | 0.0 | 0.0 | 0.00 | 0.00 | 0.00 | 73 | 1016.6 |
| 20260504035017 | 47 | 277 | 0.0 | 0.0 | 0.00 | 0.00 | 0.00 | 73 | 1016.8 |
| 20260504034515 | 47 | 281 | 1.0 | 1.0 | 0.00 | 0.00 | 0.00 | 72 | 1016.8 |
| 20260504034012 | 48 | 286 | 0.0 | 1.0 | 0.00 | 0.00 | 0.00 | 69 | 1016.8 |
| 20260504033509 | 47 | 276 | 1.0 | 1.0 | 0.00 | 0.00 | 0.00 | 69 | 1016.8 |
| 20260504033007 | 47 | 290 | 1.0 | 1.0 | 0.00 | 0.00 | 0.00 | 70 | 1016.7 |
| 20260504032503 | 47 | 267 | 0.0 | 0.0 | 0.00 | 0.00 | 0.00 | 69 | 1016.5 |
| 20260504032000 | 47 | 256 | 1.0 | 1.0 | 0.00 | 0.00 | 0.00 | 68 | 1016.7 |
| 20260504031456 | 48 | 289 | 0.0 | 0.0 | 0.00 | 0.00 | 0.00 | 68 | 1016.6 |
| 20260504030953 | 48 | 263 | 0.0 | 0.0 | 0.00 | 0.00 | 0.00 | 67 | 1016.6 |
| 20260504030451 | 48 | 291 | 1.0 | 1.0 | 0.00 | 0.00 | 0.00 | 64 | 1016.8 |
| 20260504025946 | 48 | 278 | 0.0 | 0.0 | 0.00 | 0.00 | 0.00 | 66 | 1017.0 |
| 20260504025443 | 48 | 283 | 1.0 | 1.0 | 0.00 | 0.00 | 0.00 | 66 | 1016.7 |
| 20260504024941 | 48 | 282 | 0.0 | 1.0 | 0.00 | 0.00 | 0.00 | 67 | 1016.5 |
| 20260504024437 | 49 | 294 | 1.0 | 1.0 | 0.00 | 0.00 | 0.00 | 66 | 1016.8 |
| 20260504023934 | 49 | 308 | 1.0 | 1.0 | 0.00 | 0.00 | 0.00 | 61 | 1016.7 |
| 20260504023431 | 49 | 280 | 0.0 | 0.0 | 0.00 | 0.00 | 0.00 | 60 | 1016.8 |
| 20260504022926 | 49 | 277 | 0.0 | 0.0 | 0.00 | 0.00 | 0.00 | 58 | 1016.6 |
| 20260504022423 | 48 | 298 | 2.0 | 2.0 | 0.00 | 0.00 | 0.00 | 60 | 1016.7 |
| 20260504021920 | 48 | 276 | 0.0 | 0.0 | 0.00 | 0.00 | 0.00 | 65 | 1016.6 |
| 20260504021417 | 48 | 294 | 1.0 | 1.0 | 0.00 | 0.00 | 0.00 | 64 | 1016.6 |
| 20260504020914 | 48 | 286 | 1.0 | 1.0 | 0.00 | 0.00 | 0.00 | 65 | 1016.4 |
| 20260504020411 | 48 | 304 | 0.0 | 0.0 | 0.00 | 0.00 | 0.00 | 61 | 1016.6 |
| 20260504015908 | 48 | 289 | 0.0 | 1.0 | 0.00 | 0.00 | 0.00 | 60 | 1016.6 |
| 20260504015403 | 48 | 282 | 2.0 | 2.0 | 0.00 | 0.00 | 0.00 | 59 | 1016.5 |
| 20260504014859 | 49 | 271 | 0.0 | 1.0 | 0.00 | 0.00 | 0.00 | 62 | 1016.4 |
| 20260504014355 | 48 | 289 | 0.0 | 1.0 | 0.00 | 0.00 | 0.00 | 64 | 1016.2 |
| 20260504013853 | 49 | 279 | 0.0 | 0.0 | 0.00 | 0.00 | 0.00 | 63 | 1016.3 |
| 20260504013351 | 49 | 289 | 1.0 | 1.0 | 0.00 | 0.00 | 0.00 | 62 | 1016.2 |
| 20260504012847 | 50 | 305 | 1.0 | 1.0 | 0.00 | 0.00 | 0.00 | 59 | 1016.2 |
| 20260504012345 | 50 | 286 | 1.0 | 1.0 | 0.00 | 0.00 | 0.00 | 58 | 1016.1 |
| 20260504011842 | 50 | 278 | 0.0 | 0.0 | 0.00 | 0.00 | 0.00 | 56 | 1016.1 |
| 20260504011339 | 50 | 271 | 0.0 | 0.0 | 0.00 | 0.00 | 0.00 | 56 | 1015.6 |
| 20260504010835 | 51 | 291 | 0.0 | 1.0 | 0.00 | 0.00 | 0.00 | 55 | 1015.6 |
| 20260504010330 | 51 | 276 | 0.0 | 0.0 | 0.00 | 0.00 | 0.00 | 54 | 1015.8 |
| 20260504005827 | 52 | 270 | 0.0 | 0.0 | 0.00 | 0.00 | 0.00 | 53 | 1015.9 |
| 20260504005324 | 53 | 281 | 0.0 | 0.0 | 0.00 | 0.00 | 0.00 | 50 | 1015.9 |
| 20260504004822 | 53 | 294 | 0.0 | 1.0 | 0.00 | 0.00 | 0.00 | 51 | 1015.6 |
| 20260504004319 | 53 | 290 | 0.0 | 0.0 | 0.00 | 0.00 | 0.00 | 49 | 1015.6 |
| 20260504003815 | 54 | 251 | 0.0 | 0.0 | 0.00 | 0.00 | 0.00 | 47 | 1015.5 |
| 20260504003313 | 54 | 302 | 0.0 | 1.0 | 0.00 | 0.00 | 0.00 | 45 | 1015.5 |
| 20260504002809 | 55 | 292 | 0.0 | 0.0 | 0.00 | 0.00 | 0.00 | 41 | 1015.4 |
| 20260504002306 | 56 | 276 | 0.0 | 0.0 | 0.00 | 0.00 | 0.00 | 40 | 1015.6 |
| 20260504001804 | 57 | 274 | 0.0 | 0.0 | 0.00 | 0.00 | 0.00 | 39 | 1015.5 |
| 20260504001301 | 58 | 273 | 0.0 | 0.0 | 0.00 | 0.00 | 0.00 | 34 | 1015.3 |
| 20260504000758 | 59 | 270 | 0.0 | 0.0 | 0.00 | 0.00 | 0.00 | 34 | 1015.3 |
| 20260504000254 | 60 | 275 | 0.0 | 0.0 | 0.00 | 0.00 | 0.00 | 31 | 1015.5 |
| 20260503235752 | 61 | 269 | 2.0 | 2.0 | 0.00 | 0.00 | 0.00 | 29 | 1015.5 |
| 20260503235249 | 61 | 247 | 1.0 | 2.0 | 0.00 | 0.00 | 0.00 | 28 | 1015.6 |
| 20260503234747 | 61 | 272 | 0.0 | 0.0 | 0.00 | 0.00 | 0.00 | 30 | 1015.3 |
| 20260503234245 | 62 | 259 | 1.0 | 5.0 | 0.00 | 0.00 | 0.00 | 28 | 1015.3 |
| 20260503233742 | 62 | 259 | 1.0 | 2.0 | 0.00 | 0.00 | 0.00 | 29 | 1015.5 |
| 20260503233238 | 63 | 271 | 0.0 | 1.0 | 0.00 | 0.00 | 0.00 | 29 | 1015.4 |
| 20260503232735 | 63 | 249 | 2.0 | 3.0 | 0.00 | 0.00 | 0.00 | 28 | 1015.5 |
| 20260503232232 | 63 | 278 | 0.0 | 0.0 | 0.00 | 0.00 | 0.00 | 29 | 1015.3 |
| 20260503231730 | 64 | 300 | 1.0 | 2.0 | 0.00 | 0.00 | 0.00 | 26 | 1015.4 |
| 20260503231226 | 63 | 262 | 1.0 | 2.0 | 0.00 | 0.00 | 0.00 | 26 | 1015.4 |
| 20260503230722 | 64 | 250 | 4.0 | 6.0 | 0.00 | 0.00 | 0.00 | 27 | 1015.2 |
| 20260503230220 | 64 | 228 | 3.0 | 3.0 | 0.00 | 0.00 | 0.00 | 27 | 1015.3 |
| 20260503225717 | 63 | 268 | 3.0 | 3.0 | 0.00 | 0.00 | 0.00 | 26 | 1015.3 |
| 20260503225217 | 63 | 245 | 2.0 | 2.0 | 0.00 | 0.00 | 0.00 | 27 | 1015.3 |
| 20260503224715 | 63 | 253 | 3.0 | 5.0 | 0.00 | 0.00 | 0.00 | 27 | 1015.1 |
| 20260503224213 | 63 | 248 | 2.0 | 6.0 | 0.00 | 0.00 | 0.00 | 26 | 1015.3 |
| 20260503223710 | 63 | 286 | 3.0 | 6.0 | 0.00 | 0.00 | 0.00 | 26 | 1015.2 |
| 20260503223207 | 64 | 247 | 6.0 | 7.0 | 0.00 | 0.00 | 0.00 | 26 | 1015.3 |
| 20260503222704 | 63 | 279 | 0.0 | 1.0 | 0.00 | 0.00 | 0.00 | 25 | 1015.3 |
| 20260503222201 | 64 | 276 | 2.0 | 3.0 | 0.00 | 0.00 | 0.00 | 26 | 1015.2 |
| 20260503221700 | 64 | 243 | 6.0 | 8.0 | 0.00 | 0.00 | 0.00 | 28 | 1015.3 |
| 20260503221156 | 64 | 271 | 0.0 | 1.0 | 0.00 | 0.00 | 0.00 | 25 | 1015.4 |
| 20260503220653 | 63 | 282 | 1.0 | 2.0 | 0.00 | 0.00 | 0.00 | 26 | 1015.3 |
| 20260503220150 | 64 | 279 | 0.0 | 1.0 | 0.00 | 0.00 | 0.00 | 25 | 1015.3 |
| 20260503215647 | 64 | 279 | 1.0 | 2.0 | 0.00 | 0.00 | 0.00 | 27 | 1015.5 |
| 20260503215143 | 63 | 262 | 1.0 | 2.0 | 0.00 | 0.00 | 0.00 | 27 | 1015.4 |
| 20260503214643 | 63 | 279 | 5.0 | 7.0 | 0.00 | 0.00 | 0.00 | 26 | 1015.3 |
| 20260503214138 | 63 | 269 | 2.0 | 5.0 | 0.00 | 0.00 | 0.00 | 26 | 1015.3 |
| 20260503213638 | 64 | 230 | 5.0 | 6.0 | 0.00 | 0.00 | 0.00 | 26 | 1015.3 |
| 20260503213134 | 63 | 278 | 3.0 | 5.0 | 0.00 | 0.00 | 0.00 | 25 | 1015.2 |
| 20260503212631 | 64 | 305 | 3.0 | 6.0 | 0.00 | 0.00 | 0.00 | 26 | 1015.6 |
| 20260503212129 | 64 | 276 | 6.0 | 10.0 | 0.00 | 0.00 | 0.00 | 26 | 1015.3 |
| 20260503211626 | 63 | 269 | 2.0 | 3.0 | 0.00 | 0.00 | 0.00 | 27 | 1015.6 |
| 20260503211121 | 63 | 359 | 3.0 | 5.0 | 0.00 | 0.00 | 0.00 | 27 | 1015.5 |
| 20260503210618 | 62 | 276 | 3.0 | 6.0 | 0.00 | 0.00 | 0.00 | 28 | 1015.5 |
| 20260503210115 | 63 | 235 | 9.0 | 11.0 | 0.00 | 0.00 | 0.00 | 27 | 1015.8 |
| 20260503205611 | 62 | 289 | 5.0 | 8.0 | 0.00 | 0.00 | 0.00 | 26 | 1015.8 |
| 20260503205107 | 62 | 237 | 2.0 | 2.0 | 0.00 | 0.00 | 0.00 | 27 | 1015.6 |
| 20260503204604 | 62 | 276 | 3.0 | 3.0 | 0.00 | 0.00 | 0.00 | 27 | 1015.8 |
| 20260503204101 | 63 | 274 | 2.0 | 5.0 | 0.00 | 0.00 | 0.00 | 28 | 1015.9 |
| 20260503203558 | 62 | 50 | 2.0 | 2.0 | 0.00 | 0.00 | 0.00 | 27 | 1015.9 |
| 20260503203055 | 62 | 276 | 3.0 | 3.0 | 0.00 | 0.00 | 0.00 | 27 | 1016.0 |
| 20260503202553 | 62 | 262 | 11.0 | 14.0 | 0.00 | 0.00 | 0.00 | 27 | 1016.0 |
| 20260503202051 | 62 | 287 | 5.0 | 8.0 | 0.00 | 0.00 | 0.00 | 29 | 1015.9 |
| 20260503201549 | 61 | 265 | 4.0 | 6.0 | 0.00 | 0.00 | 0.00 | 28 | 1016.2 |
| 20260503201046 | 62 | 273 | 1.0 | 2.0 | 0.00 | 0.00 | 0.00 | 29 | 1016.2 |
| 20260503200541 | 62 | 236 | 11.0 | 11.0 | 0.00 | 0.00 | 0.00 | 30 | 1016.1 |
| 20260503200039 | 62 | 319 | 5.0 | 7.0 | 0.00 | 0.00 | 0.00 | 30 | 1016.2 |
| 20260503195536 | 62 | 268 | 8.0 | 11.0 | 0.00 | 0.00 | 0.00 | 29 | 1016.3 |
| 20260503195033 | 62 | 298 | 7.0 | 8.0 | 0.00 | 0.00 | 0.00 | 29 | 1016.5 |
| 20260503194530 | 62 | 229 | 6.0 | 8.0 | 0.00 | 0.00 | 0.00 | 31 | 1016.3 |
| 20260503194029 | 61 | 217 | 1.0 | 2.0 | 0.00 | 0.00 | 0.00 | 30 | 1016.5 |
| 20260503193527 | 61 | 243 | 8.0 | 11.0 | 0.00 | 0.00 | 0.00 | 31 | 1016.3 |
| 20260503193021 | 61 | 278 | 3.0 | 6.0 | 0.00 | 0.00 | 0.00 | 30 | 1016.7 |
| 20260503192518 | 60 | 298 | 1.0 | 1.0 | 0.00 | 0.00 | 0.00 | 31 | 1016.8 |
| 20260503192014 | 60 | 186 | 7.0 | 9.0 | 0.00 | 0.00 | 0.00 | 30 | 1016.8 |
| 20260503191511 | 61 | 294 | 5.0 | 8.0 | 0.00 | 0.00 | 0.00 | 30 | 1016.7 |
| 20260503191008 | 60 | 310 | 5.0 | 8.0 | 0.00 | 0.00 | 0.00 | 33 | 1016.7 |
| 20260503190505 | 61 | 338 | 3.0 | 5.0 | 0.00 | 0.00 | 0.00 | 32 | 1016.8 |
| 20260503190002 | 60 | 283 | 4.0 | 6.0 | 0.00 | 0.00 | 0.00 | 31 | 1017.0 |
| 20260503185458 | 60 | 272 | 1.0 | 5.0 | 0.00 | 0.00 | 0.00 | 29 | 1017.2 |
| 20260503184958 | 60 | 291 | 2.0 | 2.0 | 0.00 | 0.00 | 0.00 | 30 | 1017.3 |
| 20260503184454 | 59 | 293 | 4.0 | 9.0 | 0.00 | 0.00 | 0.00 | 31 | 1017.5 |
| 20260503183951 | 58 | 252 | 5.0 | 7.0 | 0.00 | 0.00 | 0.00 | 32 | 1017.5 |
| 20260503183448 | 59 | 265 | 4.0 | 7.0 | 0.00 | 0.00 | 0.00 | 31 | 1017.3 |
| 20260503182944 | 60 | 259 | 7.0 | 9.0 | 0.00 | 0.00 | 0.00 | 33 | 1017.8 |
| 20260503182443 | 60 | 168 | 4.0 | 6.0 | 0.00 | 0.00 | 0.00 | 32 | 1017.7 |
| 20260503181940 | 58 | 234 | 1.0 | 2.0 | 0.00 | 0.00 | 0.00 | 32 | 1017.6 |
| 20260503181437 | 59 | 317 | 3.0 | 3.0 | 0.00 | 0.00 | 0.00 | 32 | 1017.9 |
| 20260503180933 | 58 | 265 | 2.0 | 3.0 | 0.00 | 0.00 | 0.00 | 34 | 1017.7 |
| 20260503180432 | 58 | 338 | 3.0 | 3.0 | 0.00 | 0.00 | 0.00 | 33 | 1017.9 |
| 20260503175928 | 58 | 283 | 3.0 | 5.0 | 0.00 | 0.00 | 0.00 | 33 | 1018.0 |
| 20260503175426 | 57 | 264 | 5.0 | 7.0 | 0.00 | 0.00 | 0.00 | 34 | 1018.1 |
| 20260503174922 | 58 | 282 | 9.0 | 13.0 | 0.00 | 0.00 | 0.00 | 35 | 1017.9 |
| 20260503174420 | 57 | 313 | 2.0 | 5.0 | 0.00 | 0.00 | 0.00 | 35 | 1018.2 |
| 20260503173920 | 57 | 253 | 5.0 | 7.0 | 0.00 | 0.00 | 0.00 | 38 | 1018.2 |
| 20260503173417 | 56 | 102 | 2.0 | 3.0 | 0.00 | 0.00 | 0.00 | 36 | 1017.9 |
| 20260503172914 | 56 | 284 | 1.0 | 2.0 | 0.00 | 0.00 | 0.00 | 38 | 1018.3 |
| 20260503172411 | 56 | 134 | 1.0 | 5.0 | 0.00 | 0.00 | 0.00 | 38 | 1018.3 |
| 20260503171907 | 57 | 241 | 1.0 | 2.0 | 0.00 | 0.00 | 0.00 | 36 | 1018.3 |
| 20260503171404 | 55 | 345 | 1.0 | 3.0 | 0.00 | 0.00 | 0.00 | 40 | 1018.4 |
| 20260503170901 | 55 | 183 | 6.0 | 8.0 | 0.00 | 0.00 | 0.00 | 38 | 1018.5 |
| 20260503170358 | 55 | 8 | 2.0 | 3.0 | 0.00 | 0.00 | 0.00 | 39 | 1018.3 |
| 20260503150750 | 51 | 54 | 2.0 | 5.0 | 0.00 | 0.00 | 0.00 | 44 | 1020.0 |
| 20260503150246 | 50 | 8 | 3.0 | 5.0 | 0.00 | 0.00 | 0.00 | 43 | 1020.0 |
| 20260503140210 | 47 | 5 | 6.0 | 7.0 | 0.00 | 0.00 | 0.00 | 45 | 1020.5 |
| 20260503131140 | 47 | 299 | 6.0 | 8.0 | 0.00 | 0.00 | 0.00 | 50 | 1019.9 |
| 20260503130637 | 46 | 298 | 3.0 | 5.0 | 0.00 | 0.00 | 0.00 | 52 | 1019.9 |
| 20260503130135 | 47 | 272 | 1.0 | 3.0 | 0.00 | 0.00 | 0.00 | 50 | 1020.0 |
| 20260503110527 | 37 | 296 | 1.0 | 1.0 | 0.00 | 0.00 | 0.00 | 82 | 1018.8 |
| 20260503090414 | 37 | 283 | 1.0 | 1.0 | 0.00 | 0.00 | 0.00 | 80 | 1017.0 |
| 20260503081341 | 34 | 283 | 0.0 | 0.0 | 0.00 | 0.00 | 0.00 | 92 | 1016.8 |
| 20260503080837 | 34 | 290 | 0.0 | 1.0 | 0.00 | 0.00 | 0.00 | 92 | 1016.9 |
| 20260503080335 | 35 | 303 | 0.0 | 1.0 | 0.00 | 0.00 | 0.00 | 92 | 1016.3 |
| 20260503072811 | 35 | 285 | 0.0 | 1.0 | 0.00 | 0.00 | 0.00 | 91 | 1016.2 |
| 20260503072308 | 35 | 270 | 0.0 | 1.0 | 0.00 | 0.00 | 0.00 | 90 | 1016.5 |
| 20260503071804 | 35 | 268 | 0.0 | 0.0 | 0.00 | 0.00 | 0.00 | 90 | 1016.1 |
| 20260503071302 | 35 | 267 | 0.0 | 0.0 | 0.00 | 0.00 | 0.00 | 90 | 1016.2 |
| 20260503070757 | 36 | 281 | 0.0 | 0.0 | 0.00 | 0.00 | 0.00 | 90 | 1016.0 |
| 20260503070256 | 36 | 320 | 1.0 | 2.0 | 0.00 | 0.00 | 0.00 | 90 | 1016.1 |